[[{"header":{"parameterUnit":"m.s-1","parameterCategory":1,"la1":30.2991,"la2":30.254,"lo1":-89.0895,"lo2":-89.0444,"dy":0.0017,"dx":0.0017,"nx":28,"ny":28,"refTime":"2025-05-29T03:00:00:Z","depth":0,"parameterNumber":2,"parameterNumberName":"U-component_of_WINDS"},"data":[0,0,0,0,0,0,0,0,0,0,0,0,0,0,0,0,0,0,0,0,0,0,0,0,0,0,0,0,0,0,0,0,0,0,0,0,0,0,0,0,0,0,0,0,0,0,0,0,0,0,0,0,0,0,0,0,0,0,5.0298,5.0299,0,5.0361,5.0362,5.0362,5.0292,5.029,5.0287,5.0284,5.0354,5.0358,5.0362,0,0,0,0,0,0,0,0,0,0,0,0,0,5.0125,5.0128,5.0298,5.0299,5.03,5.0361,5.0362,5.0362,5.0293,5.029,5.0286,5.0283,5.0352,5.0358,5.0363,0,0,0,0,0,0,0,0,0,0,0,0,0,5.0195,5.013,5.0298,5.0272,5.027,5.0361,5.0362,5.0363,5.0293,5.0289,5.0285,5.0282,5.0351,5.0357,5.0363,5.0484,0,0,5.0383,5.0386,0,0,0,0,0,0,0,0,5.0191,5.0202,5.0275,5.0274,5.0272,5.0314,5.0326,5.0403,5.0294,5.0285,5.0284,5.028,5.0344,5.0351,5.0372,5.0487,5.049,5.0384,5.0388,5.0391,5.0392,0,0,0,0,0,0,0,5.0187,5.0199,5.0323,5.0276,5.0275,5.026,5.0265,5.034,5.0337,5.0285,5.028,5.0289,5.0343,5.0366,5.0373,5.0491,5.0384,5.0389,5.0394,5.0396,5.0713,5.0717,0,0,0,0,0,0,5.0184,5.0195,5.0321,5.0325,5.0221,5.0266,5.0272,5.0305,5.0335,5.0336,5.0292,5.0285,5.0357,5.0365,5.0375,5.0521,5.0391,5.0397,5.04,5.0709,5.0714,5.0719,0,0,0,0,0,0,5.018,5.0196,5.0318,5.0259,5.0273,5.0273,5.0311,5.0308,5.0331,5.034,5.034,5.0316,5.0354,5.0366,5.0458,5.0523,5.04,5.0406,5.0703,5.071,5.0717,5.0813,0,0,0,0,0,0,5.0176,5.0195,5.0239,5.026,5.0277,5.0398,5.0315,5.0313,5.0342,5.0334,5.0362,5.0363,5.0352,5.0449,5.0464,5.0529,5.0411,5.0698,5.0706,5.0714,5.0804,5.0822,5.0837,0,0,0,0,0,5.017,5.0263,5.0241,5.0257,5.0331,5.0402,5.0412,5.0395,5.0347,5.0393,5.04,5.0362,5.0513,5.0459,5.0476,5.0544,5.0693,5.0704,5.0714,5.0796,5.0818,5.0837,0,0,0,0,0,0,5.025,5.0266,5.0241,5.0344,5.0372,5.039,5.0447,5.0418,5.0461,5.0452,5.0431,5.0438,5.0537,5.0549,5.0489,5.0664,5.0596,5.061,5.0652,5.0674,5.069,5.0686,5.0416,0,0,0,0,0,5.028,5.0334,5.0345,5.0435,5.045,5.0447,5.0477,5.0461,5.0491,5.0503,5.0515,5.0547,5.0601,5.0638,5.0688,5.0805,5.0812,5.086,5.0877,5.0891,5.0904,5.0971,5.0994,5.0752,5.0752,5.0752,0,0,5.0342,5.0357,5.0393,5.0452,5.0472,5.0532,5.0457,5.0522,5.0567,5.0513,5.0601,5.0612,5.0646,5.0752,5.0799,5.0765,5.0972,5.0904,5.0915,5.0921,5.0984,5.1007,5.1027,5.0759,5.0758,5.0757,0,0,5.0486,5.0501,5.0579,5.0601,5.0632,5.063,5.0649,5.0672,5.0677,5.0765,5.0726,5.0781,5.0874,5.0901,5.0927,5.1085,5.1054,5.1102,5.1191,5.1256,5.1275,5.1292,5.1352,5.1374,5.1115,5.1115,5.1115,0,5.0559,5.0645,5.0624,5.0693,5.0722,5.0674,5.0756,5.0779,5.0826,5.0848,5.0809,5.0928,5.0947,5.1061,5.11,5.1121,5.1145,5.1099,5.1274,5.1291,5.1306,5.1363,5.1386,5.1121,5.112,5.1119,5.1119,0,5.0737,5.0797,5.0857,5.0904,5.0939,5.1014,5.1006,5.1045,5.1028,5.103,5.1123,5.1145,5.12,5.1226,5.1209,5.1339,5.1317,5.1276,5.1208,5.1335,5.1389,5.141,5.1129,5.1127,5.1125,5.1124,0,0,5.0933,5.0967,5.099,5.1012,5.1044,5.1092,5.1167,5.122,5.1256,5.1291,5.1355,5.1437,5.14,5.143,5.1416,5.1474,5.1603,5.1426,5.1427,5.1461,5.1752,5.1784,5.181,5.1581,5.1585,5.1589,5.175,0,5.108,5.1207,5.1191,5.1315,5.1373,5.133,5.1396,5.1425,5.143,5.1482,5.1488,5.1548,5.1492,5.1511,5.1565,5.1575,5.1661,5.1563,5.1645,5.1648,5.164,5.1837,5.1871,5.2022,5.177,5.1774,5.1776,0,5.1268,5.131,5.1439,5.1466,5.149,5.1548,5.1599,5.1648,5.1681,5.1681,5.1716,5.1693,5.1771,5.17,5.181,5.1744,5.1776,5.1787,5.1792,5.1801,5.1722,5.1854,5.2069,5.2093,5.1808,5.1806,5.1803,0,5.1403,5.1491,5.1581,5.16,5.1633,5.1676,5.1692,5.1721,5.1755,5.18,5.1823,5.1876,5.1906,5.1949,5.1943,5.1891,5.2057,5.1984,5.2063,5.2063,5.2101,5.2099,5.2327,5.2118,5.2117,5.2117,5.2116,0,5.1571,5.1653,5.1642,5.1698,5.1789,5.1771,5.1863,5.1874,5.1901,5.196,5.1926,5.1983,5.197,5.2027,5.2023,5.2118,5.213,5.2135,5.2134,5.214,5.214,5.2163,5.2154,5.2123,5.2121,5.212,5.2119,0,5.1737,5.1733,5.1829,5.1852,5.186,5.1927,5.1948,5.2002,5.2005,5.2081,5.2097,5.2103,5.2169,5.2166,5.2241,5.2239,5.2356,5.2341,5.2345,5.2343,5.2423,5.2417,5.2676,5.2711,5.2476,5.2478,5.248,0,5.1846,5.1908,5.1938,5.1975,5.1994,5.2053,5.2088,5.2074,5.2113,5.2157,5.2207,5.227,5.232,5.2428,5.2441,5.2499,5.2487,5.2574,5.2496,5.2502,5.2493,5.2491,5.2499,5.259,5.2593,5.2595,5.2597,0,5.2041,5.2036,5.2087,5.214,5.2183,5.2223,5.226,5.2292,5.2283,5.2328,5.2395,5.2434,5.2511,5.2576,5.2633,5.2652,5.2625,5.2621,5.2643,5.2651,5.2653,5.2657,5.239,5.2616,5.2614,5.2612,5.2611,5.261,5.2184,5.2239,5.227,5.2329,5.2355,5.2391,5.2444,5.2454,5.2509,5.257,5.2558,5.2635,5.267,5.2743,5.2768,5.283,5.2799,5.283,5.2839,5.2847,5.2858,5.2641,5.284,5.2839,5.2839,5.2838,5.2838,0,5.2381,5.2398,5.2453,5.2506,5.2554,5.2522,5.2562,5.2605,5.2672,5.2706,5.2756,5.2836,5.2899,5.2916,5.2978,5.3024,5.3014,5.3041,5.304,5.3045,5.288,5.2856,5.3049,5.3049,5.3049,5.3049,5.3049,5.3049,5.2488,5.258,5.258,5.2686,5.2704,5.2777,5.2804,5.2838,5.2866,5.2955,5.3007,5.3018,5.3047,5.3111,5.3169,5.3173,5.3199,5.3232,5.3232,5.3077,5.3056,5.3036,5.3014,5.3237,5.3238,5.3393,5.3394,5.3395]},{"header":{"parameterUnit":"m.s-1","parameterCategory":1,"la1":30.2991,"la2":30.254,"lo1":-89.0895,"lo2":-89.0444,"dy":0.0017,"dx":0.0017,"nx":28,"ny":28,"refTime":"2025-05-29T03:00:00:Z","depth":0,"parameterNumber":3,"parameterNumberName":"V-component_of_WINDS"},"data":[0,0,0,0,0,0,0,0,0,0,0,0,0,0,0,0,0,0,0,0,0,0,0,0,0,0,0,0,0,0,0,0,0,0,0,0,0,0,0,0,0,0,0,0,0,0,0,0,0,0,0,0,0,0,0,0,0,0,-0.7096,-0.7094,0,-0.693,-0.6928,-0.6926,-0.6906,-0.6908,-0.6909,-0.6911,-0.6732,-0.6726,-0.6719,0,0,0,0,0,0,0,0,0,0,0,0,0,-0.7388,-0.7383,-0.7096,-0.7094,-0.7092,-0.693,-0.6928,-0.6926,-0.6906,-0.6908,-0.691,-0.6912,-0.6734,-0.6726,-0.6719,0,0,0,0,0,0,0,0,0,0,0,0,0,-0.7245,-0.7381,-0.7096,-0.7063,-0.7058,-0.6931,-0.6928,-0.6925,-0.6905,-0.6908,-0.691,-0.6913,-0.6736,-0.6727,-0.6718,-0.661,0,0,-0.6689,-0.6685,0,0,0,0,0,0,0,0,-0.7253,-0.7235,-0.707,-0.7065,-0.7059,-0.6942,-0.6965,-0.6819,-0.6905,-0.6963,-0.6911,-0.6914,-0.6799,-0.6784,-0.6748,-0.6601,-0.6594,-0.6688,-0.6682,-0.6678,-0.6675,0,0,0,0,0,0,0,-0.7263,-0.7242,-0.703,-0.7067,-0.7061,-0.7053,-0.7036,-0.6937,-0.6869,-0.6958,-0.6956,-0.6938,-0.6796,-0.6757,-0.6743,-0.6591,-0.6688,-0.668,-0.6674,-0.667,-0.6349,-0.6347,0,0,0,0,0,0,-0.7281,-0.725,-0.7035,-0.7025,-0.7165,-0.7046,-0.7027,-0.6977,-0.687,-0.6856,-0.6936,-0.6937,-0.6772,-0.6754,-0.6737,-0.6605,-0.6678,-0.6669,-0.6664,-0.6352,-0.6349,-0.6346,0,0,0,0,0,0,-0.7287,-0.7262,-0.7042,-0.7137,-0.7109,-0.7039,-0.6983,-0.6972,-0.6933,-0.6853,-0.684,-0.6908,-0.6773,-0.675,-0.6642,-0.6598,-0.6665,-0.6656,-0.6355,-0.6351,-0.6347,-0.6339,0,0,0,0,0,0,-0.7295,-0.7264,-0.7224,-0.7136,-0.7104,-0.6953,-0.698,-0.6967,-0.6917,-0.6918,-0.6824,-0.681,-0.6773,-0.6657,-0.6633,-0.6586,-0.6649,-0.6359,-0.6353,-0.6348,-0.6343,-0.6335,-0.6328,0,0,0,0,0,-0.7306,-0.7226,-0.7222,-0.7196,-0.7052,-0.695,-0.6931,-0.6893,-0.6914,-0.6872,-0.6821,-0.6813,-0.6607,-0.6646,-0.6619,-0.6569,-0.6362,-0.6355,-0.6349,-0.6346,-0.6336,-0.6328,0,0,0,0,0,0,-0.7305,-0.7213,-0.7208,-0.7098,-0.7033,-0.6947,-0.6893,-0.6883,-0.6808,-0.6811,-0.6764,-0.6743,-0.6637,-0.6592,-0.6637,-0.6459,-0.6486,-0.6474,-0.6493,-0.6483,-0.6476,-0.6489,-0.6641,0,0,0,0,0,-0.7294,-0.7221,-0.7143,-0.7053,-0.7021,-0.6963,-0.6917,-0.6893,-0.6822,-0.6793,-0.6735,-0.6664,-0.6583,-0.653,-0.6452,-0.6336,-0.6315,-0.6288,-0.6281,-0.6275,-0.6265,-0.6202,-0.6189,-0.6325,-0.6325,-0.6325,0,0,-0.7266,-0.7207,-0.7163,-0.7051,-0.6998,-0.6922,-0.6939,-0.6857,-0.68,-0.678,-0.6676,-0.6631,-0.6548,-0.6437,-0.6385,-0.6396,-0.6224,-0.6267,-0.6263,-0.6256,-0.6194,-0.6182,-0.617,-0.632,-0.6321,-0.6322,0,0,-0.7177,-0.7125,-0.7046,-0.6993,-0.6914,-0.6876,-0.6857,-0.6773,-0.6744,-0.664,-0.6624,-0.6553,-0.6415,-0.6358,-0.631,-0.6203,-0.6193,-0.6179,-0.614,-0.6079,-0.6068,-0.6059,-0.6021,-0.6008,-0.6169,-0.6169,-0.6169,0,-0.7152,-0.704,-0.7005,-0.6925,-0.6876,-0.6859,-0.6777,-0.6726,-0.6624,-0.6589,-0.6604,-0.6433,-0.6375,-0.6251,-0.6226,-0.6188,-0.6164,-0.6189,-0.6073,-0.6063,-0.6053,-0.6017,-0.6003,-0.6168,-0.6168,-0.6168,-0.6168,0,-0.7013,-0.6936,-0.688,-0.6787,-0.6732,-0.6651,-0.6602,-0.655,-0.6532,-0.6492,-0.6387,-0.6318,-0.6227,-0.6195,-0.6175,-0.6068,-0.6078,-0.6083,-0.6109,-0.604,-0.6005,-0.5991,-0.6166,-0.6166,-0.6167,-0.6167,0,0,-0.6918,-0.6809,-0.6789,-0.6747,-0.6659,-0.6597,-0.6515,-0.6429,-0.6386,-0.6316,-0.6246,-0.6131,-0.6137,-0.6083,-0.6056,-0.6003,-0.5924,-0.6015,-0.6012,-0.6001,-0.5803,-0.58,-0.5785,-0.5918,-0.5915,-0.5912,-0.581,0,-0.682,-0.6677,-0.6645,-0.6521,-0.6449,-0.6433,-0.6362,-0.6299,-0.6261,-0.6192,-0.6147,-0.6068,-0.6081,-0.6049,-0.5995,-0.5945,-0.5884,-0.5952,-0.585,-0.5847,-0.5872,-0.5766,-0.5762,-0.5669,-0.5796,-0.5794,-0.5792,0,-0.6685,-0.6618,-0.6489,-0.6413,-0.6381,-0.6318,-0.6238,-0.6173,-0.6102,-0.6077,-0.6019,-0.5999,-0.5912,-0.5943,-0.5822,-0.5869,-0.5826,-0.5795,-0.579,-0.5779,-0.5815,-0.5752,-0.5638,-0.5624,-0.577,-0.5772,-0.5774,0,-0.663,-0.6506,-0.6413,-0.6377,-0.6286,-0.6243,-0.6202,-0.6134,-0.6085,-0.6013,-0.5981,-0.5899,-0.5854,-0.579,-0.5748,-0.5775,-0.563,-0.5658,-0.5607,-0.5608,-0.5576,-0.5579,-0.5454,-0.5548,-0.5548,-0.5549,-0.5549,0,-0.6524,-0.6445,-0.6387,-0.633,-0.6242,-0.6205,-0.6117,-0.6076,-0.6016,-0.5949,-0.5928,-0.5866,-0.5814,-0.5743,-0.5709,-0.5615,-0.5594,-0.5571,-0.5562,-0.5572,-0.5576,-0.5543,-0.5548,-0.5545,-0.5546,-0.5546,-0.5547,0,-0.6446,-0.6404,-0.6303,-0.6226,-0.6205,-0.6144,-0.6077,-0.602,-0.5983,-0.5898,-0.5876,-0.5815,-0.5732,-0.5684,-0.5577,-0.5554,-0.545,-0.5444,-0.5475,-0.5471,-0.5423,-0.5429,-0.5273,-0.5251,-0.536,-0.5359,-0.5358,0,-0.6381,-0.6322,-0.6241,-0.6197,-0.6157,-0.6085,-0.6036,-0.5997,-0.5946,-0.5862,-0.5815,-0.5732,-0.5663,-0.553,-0.5474,-0.5393,-0.5385,-0.5337,-0.5373,-0.5386,-0.5385,-0.539,-0.5384,-0.533,-0.5329,-0.5328,-0.5328,0,-0.6271,-0.6254,-0.6187,-0.6112,-0.6056,-0.5994,-0.5932,-0.5897,-0.5847,-0.5791,-0.5708,-0.5655,-0.5548,-0.5465,-0.538,-0.5335,-0.5323,-0.5317,-0.5301,-0.5311,-0.5332,-0.5321,-0.5458,-0.532,-0.5321,-0.5322,-0.5322,-0.5322,-0.6198,-0.6145,-0.6081,-0.6006,-0.5957,-0.5901,-0.5845,-0.5802,-0.5733,-0.5646,-0.5626,-0.5538,-0.5469,-0.5354,-0.5308,-0.5237,-0.5246,-0.5222,-0.5216,-0.5211,-0.521,-0.5344,-0.5221,-0.5222,-0.5222,-0.5222,-0.5222,0,-0.6087,-0.6046,-0.5979,-0.5896,-0.5837,-0.5835,-0.5767,-0.5717,-0.5642,-0.558,-0.5514,-0.5419,-0.5339,-0.5279,-0.5196,-0.5151,-0.5144,-0.5131,-0.5134,-0.5124,-0.5207,-0.523,-0.5139,-0.5139,-0.5139,-0.5139,-0.5139,-0.5139,-0.6023,-0.5934,-0.591,-0.5796,-0.5754,-0.5671,-0.5633,-0.5581,-0.5532,-0.5428,-0.5363,-0.5326,-0.5264,-0.5178,-0.5104,-0.5088,-0.5059,-0.5047,-0.5031,-0.5109,-0.5118,-0.5126,-0.5148,-0.5041,-0.5041,-0.4953,-0.4953,-0.4952]}]]